WGN751 EGUN-LCRA

Flight info

Callsign WGN751
Flight time 3h 59m
Altitude 39000
Route UMBAG P155 SOMVA DCT VELED DCT TIVUN DCT BARSU DCT SUBEN DCT GOTAR/N0490F410 DCT PEROT DCT XENIT DCT NISVA DCT RODIP UN131 KULAR UT39 TOMBI DCT DIPOS
Aircraft MD11/H-SDE1E2E3FGHIJ2J3J4J5M1RWXY/LB1D1

Departure

Time 2026-04-20 07:51
Airport RAF Mildenhall (EGUN)

Arrival

Time 2026-04-20 11:51
Airport RAF Akrotiri (LCRA)
Time Latitude Longitude Altitude Speed Heading
2026-04-20 07:26 52.36796 0.47800 50 ft 0 kts 102°
2026-04-20 07:39 52.36795 0.47809 50 ft 2 kts 103°
2026-04-20 07:40 52.36784 0.47833 47 ft 3 kts 134°
2026-04-20 07:40 52.36763 0.47845 50 ft 4 kts 161°
2026-04-20 07:40 52.36738 0.47846 50 ft 2 kts 192°
2026-04-20 07:40 52.36729 0.47835 47 ft 1 kts 217°
2026-04-20 07:41 52.36724 0.47814 50 ft 3 kts 252°
2026-04-20 07:41 52.36725 0.47761 50 ft 7 kts 278°
2026-04-20 07:41 52.36734 0.47682 50 ft 7 kts 282°
2026-04-20 07:41 52.36730 0.47613 48 ft 5 kts 245°
2026-04-20 07:42 52.36709 0.47587 50 ft 4 kts 205°
2026-04-20 07:42 52.36670 0.47554 47 ft 8 kts 209°
2026-04-20 07:42 52.36619 0.47509 50 ft 8 kts 207°
2026-04-20 07:42 52.36571 0.47464 49 ft 8 kts 211°
2026-04-20 07:43 52.36523 0.47416 49 ft 8 kts 212°
2026-04-20 07:43 52.36472 0.47369 49 ft 9 kts 209°
2026-04-20 07:43 52.36417 0.47327 48 ft 8 kts 192°
2026-04-20 07:43 52.36385 0.47351 47 ft 3 kts 126°
2026-04-20 07:44 52.36375 0.47408 49 ft 8 kts 105°
2026-04-20 07:44 52.36356 0.47536 45 ft 15 kts 104°
2026-04-20 07:44 52.36324 0.47745 49 ft 22 kts 104°
2026-04-20 07:44 52.36284 0.48008 47 ft 26 kts 103°
2026-04-20 07:45 52.36242 0.48312 51 ft 28 kts 103°
2026-04-20 07:45 52.36199 0.48612 51 ft 27 kts 103°
2026-04-20 07:45 52.36159 0.48900 50 ft 25 kts 103°
2026-04-20 07:45 52.36119 0.49173 51 ft 24 kts 103°
2026-04-20 07:46 52.36080 0.49427 50 ft 22 kts 104°
2026-04-20 07:46 52.36044 0.49679 49 ft 23 kts 102°
2026-04-20 07:46 52.36008 0.49931 49 ft 22 kts 104°
2026-04-20 07:46 52.35971 0.50176 48 ft 22 kts 103°
2026-04-20 07:47 52.35936 0.50413 48 ft 21 kts 104°
2026-04-20 07:47 52.35917 0.50592 51 ft 9 kts 75°
2026-04-20 07:47 52.35959 0.50637 51 ft 8 kts 12°
2026-04-20 07:47 52.36041 0.50665 47 ft 15 kts 11°
2026-04-20 07:48 52.36120 0.50705 50 ft 10 kts 33°
2026-04-20 07:48 52.36134 0.50785 50 ft 7 kts 100°
2026-04-20 07:48 52.36109 0.50847 50 ft 7 kts 128°
2026-04-20 07:48 52.36072 0.50920 50 ft 10 kts 130°
2026-04-20 07:49 52.36026 0.51006 50 ft 12 kts 131°
2026-04-20 07:49 52.35966 0.51097 51 ft 10 kts 153°
2026-04-20 07:49 52.35909 0.51091 51 ft 7 kts 191°
2026-04-20 07:49 52.35867 0.51073 50 ft 6 kts 198°
2026-04-20 07:50 52.35850 0.51040 48 ft 3 kts 254°
2026-04-20 07:50 52.35853 0.51008 47 ft 4 kts 283°
2026-04-20 07:50 52.35854 0.51005 47 ft 1 kts 283°
2026-04-20 07:50 52.35880 0.50812 52 ft 55 kts 282°
2026-04-20 07:51 52.36052 0.49607 48 ft 154 kts 283°
2026-04-20 07:51 52.36325 0.47695 560 ft 187 kts 284°
2026-04-20 07:51 52.36646 0.45572 1526 ft 196 kts 289°
2026-04-20 07:51 52.37290 0.43519 2311 ft 216 kts 312°
2026-04-20 07:52 52.38642 0.42147 2500 ft 247 kts 349°
2026-04-20 07:52 52.40422 0.42260 2672 ft 269 kts 18°
2026-04-20 07:52 52.42044 0.43682 3647 ft 246 kts 34°
2026-04-20 07:52 52.43027 0.44579 4344 ft 245 kts 21°
2026-04-20 07:53 52.44725 0.44731 5071 ft 252 kts 347°
2026-04-20 07:53 52.46628 0.42480 5889 ft 265 kts 310°
2026-04-20 07:53 52.47669 0.39945 6491 ft 270 kts 303°
2026-04-20 07:53 52.48329 0.38158 6864 ft 272 kts 305°
2026-04-20 07:54 52.49522 0.35821 7426 ft 270 kts 319°
2026-04-20 07:54 52.50961 0.33825 7980 ft 272 kts 323°
2026-04-20 07:54 52.52463 0.31912 8363 ft 272 kts 324°
2026-04-20 07:54 52.53967 0.30023 8750 ft 272 kts 324°
2026-04-20 07:55 52.55470 0.28131 9140 ft 273 kts 323°
2026-04-20 07:55 52.56994 0.26256 9298 ft 274 kts 327°
2026-04-20 07:55 52.58712 0.24954 9575 ft 271 kts 349°
2026-04-20 07:55 52.60591 0.24857 10633 ft 281 kts
2026-04-20 07:56 52.62506 0.26165 10782 ft 321 kts 36°
2026-04-20 07:56 52.63947 0.29161 11215 ft 349 kts 65°
2026-04-20 07:56 52.64429 0.33127 12176 ft 360 kts 88°
2026-04-20 07:56 52.64021 0.37244 13145 ft 370 kts 106°
2026-04-20 07:57 52.63063 0.41165 14026 ft 378 kts 112°
2026-04-20 07:57 52.61958 0.45153 14863 ft 385 kts 112°
2026-04-20 07:57 52.60895 0.49228 15706 ft 389 kts 110°
2026-04-20 07:57 52.59901 0.53427 16494 ft 395 kts 108°
2026-04-20 07:58 52.58971 0.57708 17292 ft 400 kts 107°
2026-04-20 07:58 52.58086 0.62018 18079 ft 405 kts 106°
2026-04-20 07:58 52.57205 0.66446 18815 ft 410 kts 105°
2026-04-20 07:58 52.56325 0.70935 19479 ft 415 kts 105°
2026-04-20 07:59 52.55439 0.75471 20125 ft 419 kts 105°
2026-04-20 07:59 52.54542 0.80060 20751 ft 424 kts 106°
2026-04-20 07:59 52.53634 0.84698 21383 ft 429 kts 106°
2026-04-20 07:59 52.52713 0.89378 22022 ft 433 kts 106°
2026-04-20 08:00 52.51780 0.94111 22632 ft 439 kts 106°
2026-04-20 08:00 52.50829 0.98918 23204 ft 445 kts 106°
2026-04-20 08:00 52.49865 1.03778 23907 ft 449 kts 106°
2026-04-20 08:00 52.48891 1.08679 24435 ft 455 kts 106°
2026-04-20 08:01 52.47900 1.13653 24964 ft 460 kts 107°
2026-04-20 08:01 52.46908 1.18618 25491 ft 466 kts 107°
2026-04-20 08:01 52.45876 1.23766 26023 ft 472 kts 107°
2026-04-20 08:01 52.44856 1.28844 26553 ft 478 kts 107°
2026-04-20 08:02 52.43806 1.34061 27068 ft 484 kts 107°
2026-04-20 08:02 52.42742 1.39329 27584 ft 490 kts 107°
2026-04-20 08:02 52.41663 1.44658 28091 ft 496 kts 107°
2026-04-20 08:02 52.40569 1.50046 28632 ft 501 kts 107°
2026-04-20 08:03 52.39463 1.55475 29237 ft 505 kts 107°
2026-04-20 08:03 52.38344 1.60947 29732 ft 510 kts 108°
2026-04-20 08:03 52.37304 1.65936 30164 ft 515 kts 108°
2026-04-20 08:03 52.36131 1.71507 30587 ft 520 kts 108°
2026-04-20 08:04 52.34953 1.77117 30998 ft 523 kts 108°
2026-04-20 08:04 52.33771 1.82773 31428 ft 525 kts 108°
2026-04-20 08:04 52.32791 1.88438 31892 ft 523 kts 99°
2026-04-20 08:04 52.32291 1.94308 32412 ft 520 kts 92°
2026-04-20 08:05 52.32117 2.00204 32943 ft 517 kts 89°
2026-04-20 08:05 52.32072 2.06055 33479 ft 515 kts 88°
2026-04-20 08:05 52.32044 2.11905 33958 ft 514 kts 88°
2026-04-20 08:05 52.31985 2.17761 34400 ft 514 kts 89°
2026-04-20 08:06 52.31886 2.23598 34776 ft 514 kts 90°
2026-04-20 08:06 52.31756 2.29422 35162 ft 513 kts 90°
2026-04-20 08:06 52.31607 2.35238 35544 ft 512 kts 90°
2026-04-20 08:06 52.31450 2.40963 35907 ft 510 kts 91°
2026-04-20 08:07 52.31285 2.46828 36283 ft 509 kts 91°
2026-04-20 08:07 52.31123 2.52538 36697 ft 507 kts 91°
2026-04-20 08:07 52.30947 2.58277 37051 ft 506 kts 92°
2026-04-20 08:07 52.30484 2.63981 37386 ft 506 kts 102°
2026-04-20 08:08 52.29489 2.69489 37732 ft 506 kts 111°
2026-04-20 08:08 52.27995 2.74683 38031 ft 505 kts 118°
2026-04-20 08:08 52.26240 2.79646 38320 ft 504 kts 121°
2026-04-20 08:08 52.24431 2.84559 38595 ft 504 kts 121°
2026-04-20 08:09 52.22660 2.89506 38817 ft 506 kts 120°
2026-04-20 08:09 52.20940 2.94525 39043 ft 506 kts 118°
2026-04-20 08:09 52.19290 2.99516 39209 ft 506 kts 118°
2026-04-20 08:09 52.17646 3.04597 39258 ft 507 kts 117°
2026-04-20 08:10 52.14373 3.14807 39280 ft 509 kts 117°
2026-04-20 08:10 52.11077 3.25041 39280 ft 509 kts 117°
2026-04-20 08:11 52.07771 3.35229 39268 ft 509 kts 118°
2026-04-20 08:11 52.04452 3.45403 39278 ft 509 kts 118°
2026-04-20 08:12 52.01132 3.55536 39262 ft 508 kts 118°
2026-04-20 08:12 51.97803 3.65657 39255 ft 509 kts 118°
2026-04-20 08:13 51.94451 3.75807 39265 ft 512 kts 118°
2026-04-20 08:13 51.91074 3.85979 39256 ft 512 kts 118°
2026-04-20 08:14 51.87675 3.96031 39259 ft 511 kts 118°
2026-04-20 08:14 51.84267 4.06129 39253 ft 511 kts 118°
2026-04-20 08:15 51.80869 4.16238 39243 ft 511 kts 118°
2026-04-20 08:15 51.77468 4.26335 39244 ft 511 kts 118°
2026-04-20 08:16 51.74055 4.36424 39242 ft 511 kts 118°
2026-04-20 08:16 51.70632 4.46499 39243 ft 513 kts 118°
2026-04-20 08:17 51.67189 4.56589 39242 ft 513 kts 118°
2026-04-20 08:17 51.63763 4.66590 39244 ft 513 kts 118°
2026-04-20 08:18 51.60304 4.76647 39239 ft 513 kts 119°
2026-04-20 08:18 51.56832 4.86701 39239 ft 513 kts 119°
2026-04-20 08:19 51.53357 4.96725 39239 ft 513 kts 119°
2026-04-20 08:19 51.49883 5.06650 39239 ft 513 kts 119°
2026-04-20 08:20 51.46352 5.16608 39238 ft 513 kts 119°
2026-04-20 08:20 51.42834 5.26578 39237 ft 514 kts 119°
2026-04-20 08:21 51.39337 5.36574 39237 ft 514 kts 116°
2026-04-20 08:21 51.36865 5.47194 39237 ft 512 kts 104°
2026-04-20 08:22 51.35169 5.58254 39236 ft 512 kts 102°
2026-04-20 08:22 51.33478 5.69326 39233 ft 512 kts 103°
2026-04-20 08:23 51.31679 5.80333 39240 ft 511 kts 104°
2026-04-20 08:23 51.29831 5.91297 39236 ft 511 kts 104°
2026-04-20 08:24 51.27972 6.02245 39233 ft 511 kts 104°
2026-04-20 08:24 51.26105 6.13206 39233 ft 511 kts 104°
2026-04-20 08:25 51.24231 6.24142 39241 ft 510 kts 104°
2026-04-20 08:25 51.22350 6.35056 39238 ft 510 kts 104°
2026-04-20 08:26 51.20473 6.45880 39238 ft 510 kts 104°
2026-04-20 08:26 51.18570 6.56782 39237 ft 510 kts 104°
2026-04-20 08:27 51.16649 6.67683 39247 ft 510 kts 105°
2026-04-20 08:27 51.14680 6.78536 39239 ft 510 kts 105°
2026-04-20 08:28 51.12724 6.89383 39221 ft 510 kts 105°
2026-04-20 08:28 51.10774 7.00267 39225 ft 511 kts 105°
2026-04-20 08:29 51.08830 7.11082 39213 ft 511 kts 105°
2026-04-20 08:29 51.06863 7.21959 39210 ft 511 kts 105°
2026-04-20 08:30 51.04887 7.32810 39210 ft 511 kts 105°
2026-04-20 08:30 51.02897 7.43674 39206 ft 511 kts 105°
2026-04-20 08:31 51.00900 7.54512 39204 ft 511 kts 105°
2026-04-20 08:31 50.98892 7.65348 39198 ft 511 kts 105°
2026-04-20 08:32 50.96886 7.76106 39188 ft 512 kts 105°
2026-04-20 08:32 50.94855 7.86938 39181 ft 512 kts 106°
2026-04-20 08:33 50.90845 8.02564 39174 ft 512 kts 121°
2026-04-20 08:34 50.86962 8.12033 39165 ft 512 kts 124°
2026-04-20 08:34 50.83026 8.21446 39162 ft 512 kts 123°
2026-04-20 08:35 50.79205 8.30883 39162 ft 513 kts 122°
2026-04-20 08:35 50.75392 8.40415 39165 ft 513 kts 122°
2026-04-20 08:36 50.71579 8.49928 39178 ft 512 kts 122°
2026-04-20 08:36 50.67755 8.59413 39175 ft 511 kts 123°
2026-04-20 08:37 50.63926 8.68872 39173 ft 512 kts 123°
2026-04-20 08:37 50.60088 8.78316 39173 ft 512 kts 123°
2026-04-20 08:38 50.56272 8.87672 39173 ft 511 kts 123°
2026-04-20 08:38 50.52420 8.97084 39159 ft 512 kts 123°
2026-04-20 08:39 50.48552 9.06498 39167 ft 513 kts 123°
2026-04-20 08:39 50.44648 9.15853 39164 ft 513 kts 123°
2026-04-20 08:40 50.40741 9.25217 39171 ft 513 kts 123°
2026-04-20 08:40 50.37496 9.33018 39163 ft 514 kts 123°
2026-04-20 08:41 50.32955 9.43924 39154 ft 514 kts 123°
2026-04-20 08:41 50.29041 9.53289 39158 ft 514 kts 123°
2026-04-20 08:42 50.25751 9.61129 39147 ft 514 kts 123°
2026-04-20 08:42 50.21844 9.70412 39153 ft 514 kts 123°
2026-04-20 08:43 50.17905 9.79736 39145 ft 514 kts 123°
2026-04-20 08:43 50.13962 9.89036 39149 ft 514 kts 123°
2026-04-20 08:44 50.10010 9.98326 39144 ft 514 kts 124°
2026-04-20 08:44 50.06076 10.07540 39144 ft 514 kts 124°
2026-04-20 08:45 50.02099 10.16805 39144 ft 516 kts 124°
2026-04-20 08:45 49.97995 10.25962 39140 ft 515 kts 126°
2026-04-20 08:46 49.93755 10.34886 39141 ft 516 kts 127°
2026-04-20 08:46 49.89498 10.43777 39137 ft 516 kts 127°
2026-04-20 08:47 49.85224 10.52728 39141 ft 516 kts 127°
2026-04-20 08:47 49.80950 10.61678 39136 ft 516 kts 127°
2026-04-20 08:48 49.76672 10.70608 39136 ft 516 kts 127°
2026-04-20 08:48 49.72384 10.79527 39131 ft 516 kts 127°
2026-04-20 08:49 49.68093 10.88421 39119 ft 516 kts 127°
2026-04-20 08:49 49.63815 10.97257 39128 ft 517 kts 127°
2026-04-20 08:50 49.59495 11.06150 39132 ft 517 kts 127°
2026-04-20 08:50 49.55165 11.15034 39127 ft 517 kts 127°
2026-04-20 08:51 49.50830 11.23896 39125 ft 517 kts 128°
2026-04-20 08:51 49.46493 11.32640 39123 ft 517 kts 128°
2026-04-20 08:52 49.42132 11.41435 39121 ft 517 kts 127°
2026-04-20 08:52 49.37778 11.50238 39110 ft 518 kts 128°
2026-04-20 08:53 49.33414 11.59048 39113 ft 518 kts 128°
2026-04-20 08:53 49.29041 11.67846 39113 ft 517 kts 128°
2026-04-20 08:54 49.24678 11.76594 39115 ft 517 kts 128°
2026-04-20 08:54 49.20334 11.85273 39100 ft 517 kts 128°
2026-04-20 08:55 49.15950 11.94003 39099 ft 517 kts 128°
2026-04-20 08:55 49.11566 12.02706 39082 ft 517 kts 128°
2026-04-20 08:56 49.07167 12.11410 39101 ft 518 kts 128°
2026-04-20 08:56 49.02753 12.20113 39105 ft 518 kts 128°
2026-04-20 08:57 48.98351 12.28730 39101 ft 518 kts 129°
2026-04-20 08:57 48.93896 12.37368 39111 ft 518 kts 129°
2026-04-20 08:58 48.89462 12.45993 39109 ft 516 kts 129°
2026-04-20 08:58 48.85043 12.54594 39105 ft 516 kts 129°
2026-04-20 08:59 48.80621 12.63178 39105 ft 516 kts 129°
2026-04-20 08:59 48.76194 12.71743 39109 ft 516 kts 129°
2026-04-20 09:00 48.71787 12.80240 39110 ft 516 kts 129°
2026-04-20 09:00 48.67340 12.88787 39124 ft 516 kts 129°
2026-04-20 09:01 48.62883 12.97324 39111 ft 516 kts 129°
2026-04-20 09:01 48.58419 13.05848 39118 ft 516 kts 129°
2026-04-20 09:02 48.53977 13.14305 39115 ft 516 kts 130°
2026-04-20 09:02 48.49507 13.22786 39104 ft 516 kts 130°
2026-04-20 09:03 48.45015 13.31211 39123 ft 515 kts 130°
2026-04-20 09:03 48.40691 13.39842 39108 ft 516 kts 127°
2026-04-20 09:04 48.36537 13.48683 39121 ft 517 kts 127°
2026-04-20 09:04 48.32410 13.57491 39112 ft 518 kts 127°
2026-04-20 09:05 48.28240 13.66304 39114 ft 518 kts 127°
2026-04-20 09:05 48.24049 13.75101 39106 ft 517 kts 127°
2026-04-20 09:06 48.19851 13.83880 39106 ft 518 kts 127°
2026-04-20 09:06 48.15666 13.92606 39106 ft 518 kts 127°
2026-04-20 09:07 48.11450 14.01372 39099 ft 518 kts 127°
2026-04-20 09:07 48.07226 14.10125 39102 ft 518 kts 128°
2026-04-20 09:08 48.02988 14.18879 39101 ft 519 kts 127°
2026-04-20 09:08 47.98775 14.27553 39100 ft 519 kts 128°
2026-04-20 09:09 47.94516 14.36269 39099 ft 519 kts 128°
2026-04-20 09:09 47.90232 14.44939 39094 ft 519 kts 128°
2026-04-20 09:10 47.85953 14.53622 39099 ft 519 kts 128°
2026-04-20 09:10 47.81684 14.62297 39085 ft 519 kts 128°
2026-04-20 09:11 47.77416 14.70949 39076 ft 519 kts 128°
2026-04-20 09:11 47.73137 14.79595 39092 ft 519 kts 128°
2026-04-20 09:12 47.68882 14.88163 39079 ft 519 kts 128°
2026-04-20 09:12 47.64574 14.96809 39076 ft 521 kts 128°
2026-04-20 09:13 47.60259 15.05444 39076 ft 521 kts 128°
2026-04-20 09:13 47.55940 15.14060 39065 ft 520 kts 128°
2026-04-20 09:14 47.51615 15.22658 39064 ft 520 kts 128°
2026-04-20 09:14 47.47320 15.31172 39064 ft 519 kts 128°
2026-04-20 09:15 47.42973 15.39690 39048 ft 519 kts 128°
2026-04-20 09:15 47.38616 15.48201 39052 ft 519 kts 128°
2026-04-20 09:16 47.34270 15.56716 39050 ft 519 kts 128°
2026-04-20 09:16 47.29938 15.65202 39049 ft 517 kts 128°
2026-04-20 09:17 47.25604 15.73640 39047 ft 516 kts 129°
2026-04-20 09:17 47.21179 15.81975 39048 ft 517 kts 129°
2026-04-20 09:18 47.16726 15.90256 39049 ft 514 kts 129°
2026-04-20 09:18 47.12326 15.98436 39050 ft 513 kts 129°
2026-04-20 09:19 47.07903 16.06656 39049 ft 513 kts 129°
2026-04-20 09:19 47.03464 16.14882 39061 ft 514 kts 129°
2026-04-20 09:20 46.99019 16.23096 39061 ft 514 kts 129°
2026-04-20 09:20 46.94598 16.31240 39067 ft 514 kts 129°
2026-04-20 09:21 46.90144 16.39420 39067 ft 514 kts 129°
2026-04-20 09:21 46.85685 16.47585 39067 ft 514 kts 130°
2026-04-20 09:22 46.81226 16.55725 39066 ft 510 kts 130°
2026-04-20 09:22 46.76797 16.63789 39060 ft 508 kts 130°
2026-04-20 09:23 46.72353 16.71817 39067 ft 508 kts 130°
2026-04-20 09:23 46.67921 16.79762 39065 ft 508 kts 130°
2026-04-20 09:24 46.63475 16.87757 39074 ft 507 kts 130°
2026-04-20 09:24 46.59038 16.95740 39077 ft 507 kts 130°
2026-04-20 09:25 46.54595 17.03714 39068 ft 507 kts 130°
2026-04-20 09:25 46.50151 17.11664 39056 ft 506 kts 130°
2026-04-20 09:26 46.45715 17.19578 39070 ft 505 kts 131°
2026-04-20 09:26 46.41297 17.27435 39067 ft 505 kts 131°
2026-04-20 09:27 46.36848 17.35325 39076 ft 505 kts 131°
2026-04-20 09:27 46.32397 17.43198 39070 ft 505 kts 131°
2026-04-20 09:28 46.27931 17.51073 39066 ft 507 kts 131°
2026-04-20 09:28 46.23454 17.58945 39068 ft 507 kts 131°
2026-04-20 09:29 46.18956 17.66782 39064 ft 506 kts 132°
2026-04-20 09:29 46.14455 17.74588 39069 ft 506 kts 132°
2026-04-20 09:30 46.09991 17.82352 39056 ft 508 kts 132°
2026-04-20 09:30 46.05481 17.90193 39072 ft 508 kts 132°
2026-04-20 09:30 46.03222 17.94114 39215 ft 509 kts 132°
2026-04-20 09:31 46.00962 17.98031 39421 ft 509 kts 132°
2026-04-20 09:31 45.98698 18.01948 39628 ft 509 kts 132°
2026-04-20 09:31 45.96428 18.05870 39831 ft 509 kts 132°
2026-04-20 09:31 45.94159 18.09785 39998 ft 510 kts 132°
2026-04-20 09:32 45.91887 18.13699 40156 ft 510 kts 132°
2026-04-20 09:32 45.90381 18.16290 40281 ft 510 kts 132°
2026-04-20 09:32 45.88105 18.20202 40476 ft 510 kts 132°
2026-04-20 09:32 45.85828 18.24110 40646 ft 510 kts 132°
2026-04-20 09:33 45.82815 18.29273 40928 ft 509 kts 132°
2026-04-20 09:33 45.80539 18.33167 41043 ft 509 kts 132°
2026-04-20 09:33 45.79002 18.35793 41060 ft 510 kts 132°
2026-04-20 09:34 45.74433 18.43584 41068 ft 511 kts 132°
2026-04-20 09:34 45.67583 18.55211 41064 ft 511 kts 132°
2026-04-20 09:35 45.62969 18.62952 41060 ft 511 kts 132°
2026-04-20 09:35 45.58352 18.70715 41065 ft 513 kts 132°
2026-04-20 09:36 45.53721 18.78511 41075 ft 514 kts 132°
2026-04-20 09:36 45.49125 18.86233 41075 ft 514 kts 132°
2026-04-20 09:37 45.44489 18.93998 41075 ft 514 kts 132°
2026-04-20 09:37 45.39849 19.01769 41070 ft 515 kts 131°
2026-04-20 09:38 45.35267 19.09628 41065 ft 515 kts 131°
2026-04-20 09:38 45.30722 19.17509 41059 ft 515 kts 131°
2026-04-20 09:39 45.26201 19.25333 41051 ft 515 kts 131°
2026-04-20 09:39 45.21643 19.33189 41050 ft 515 kts 131°
2026-04-20 09:40 45.17066 19.41048 41050 ft 515 kts 131°
2026-04-20 09:40 45.12488 19.48886 41051 ft 515 kts 131°
2026-04-20 09:41 45.07943 19.56647 41051 ft 515 kts 131°
2026-04-20 09:41 45.03361 19.64450 41050 ft 515 kts 131°
2026-04-20 09:42 44.98775 19.72239 41048 ft 515 kts 131°
2026-04-20 09:42 44.94176 19.80027 41046 ft 515 kts 131°
2026-04-20 09:43 44.89579 19.87792 41046 ft 515 kts 131°
2026-04-20 09:43 44.84965 19.95522 41048 ft 514 kts 131°
2026-04-20 09:44 44.80338 20.03232 41046 ft 514 kts 131°
2026-04-20 09:44 44.75724 20.10941 41044 ft 515 kts 131°
2026-04-20 09:45 44.71148 20.18588 41047 ft 514 kts 131°
2026-04-20 09:45 44.66527 20.26288 41048 ft 514 kts 131°
2026-04-20 09:46 44.61904 20.33970 41051 ft 514 kts 131°
2026-04-20 09:46 44.57276 20.41638 41056 ft 514 kts 131°
2026-04-20 09:47 44.52680 20.49234 41061 ft 514 kts 131°
2026-04-20 09:47 44.48045 20.56872 41052 ft 514 kts 132°
2026-04-20 09:48 44.43347 20.64428 41063 ft 514 kts 134°
2026-04-20 09:48 44.38530 20.71809 41070 ft 514 kts 134°
2026-04-20 09:49 44.33695 20.79171 41065 ft 514 kts 134°
2026-04-20 09:49 44.28869 20.86539 41064 ft 513 kts 134°
2026-04-20 09:50 44.24046 20.93903 41070 ft 513 kts 134°
2026-04-20 09:50 44.19231 21.01237 41052 ft 512 kts 134°
2026-04-20 09:51 44.14430 21.08527 41060 ft 513 kts 134°
2026-04-20 09:51 44.09599 21.15845 41049 ft 513 kts 134°
2026-04-20 09:52 44.04756 21.23162 41050 ft 512 kts 134°
2026-04-20 09:52 43.99926 21.30440 41044 ft 512 kts 134°
2026-04-20 09:53 43.95088 21.37710 41043 ft 512 kts 134°
2026-04-20 09:53 43.90275 21.44925 41038 ft 512 kts 134°
2026-04-20 09:54 43.85408 21.52150 41028 ft 512 kts 134°
2026-04-20 09:54 43.80546 21.59356 41033 ft 512 kts 134°
2026-04-20 09:55 43.75690 21.66571 41025 ft 512 kts 134°
2026-04-20 09:55 43.70831 21.73780 41023 ft 512 kts 134°
2026-04-20 09:56 43.65992 21.80943 41021 ft 513 kts 134°
2026-04-20 09:56 43.61112 21.88147 41012 ft 514 kts 134°
2026-04-20 09:57 43.56225 21.95344 41019 ft 514 kts 134°
2026-04-20 09:57 43.51335 22.02524 41017 ft 514 kts 134°
2026-04-20 09:58 43.46430 22.09709 41016 ft 514 kts 135°
2026-04-20 09:58 43.41532 22.16867 41015 ft 514 kts 135°
2026-04-20 09:59 43.36628 22.24013 41016 ft 512 kts 135°
2026-04-20 09:59 43.31737 22.31114 41008 ft 511 kts 135°
2026-04-20 10:00 43.26820 22.38186 41010 ft 512 kts 135°
2026-04-20 10:00 43.21946 22.45206 41008 ft 511 kts 135°
2026-04-20 10:01 43.17049 22.52270 41001 ft 509 kts 135°
2026-04-20 10:01 43.12162 22.59305 41002 ft 509 kts 135°
2026-04-20 10:02 43.07267 22.66291 40989 ft 508 kts 136°
2026-04-20 10:02 43.02167 22.72985 40988 ft 508 kts 139°
2026-04-20 10:03 42.96974 22.79549 40992 ft 507 kts 139°
2026-04-20 10:03 42.91836 22.86051 40984 ft 507 kts 139°
2026-04-20 10:04 42.86666 22.92616 40979 ft 507 kts 139°
2026-04-20 10:04 42.81501 22.99173 40967 ft 507 kts 139°
2026-04-20 10:05 42.76325 23.05727 40989 ft 508 kts 139°
2026-04-20 10:05 42.71147 23.12265 40993 ft 508 kts 139°
2026-04-20 10:06 42.65964 23.18794 40962 ft 508 kts 139°
2026-04-20 10:06 42.60783 23.25305 40971 ft 507 kts 139°
2026-04-20 10:07 42.55604 23.31799 40970 ft 507 kts 139°
2026-04-20 10:07 42.50410 23.38294 40973 ft 508 kts 139°
2026-04-20 10:08 42.45244 23.44727 40991 ft 507 kts 139°
2026-04-20 10:08 42.40027 23.51174 40989 ft 507 kts 139°
2026-04-20 10:09 42.34815 23.57625 40990 ft 507 kts 139°
2026-04-20 10:09 42.29609 23.64073 40980 ft 507 kts 139°
2026-04-20 10:10 42.24402 23.70512 40988 ft 507 kts 139°
2026-04-20 10:10 42.19216 23.76907 40980 ft 508 kts 139°
2026-04-20 10:11 42.13992 23.83335 40980 ft 508 kts 139°
2026-04-20 10:11 42.08769 23.89746 40983 ft 508 kts 139°
2026-04-20 10:12 42.03539 23.96150 40969 ft 508 kts 140°
2026-04-20 10:12 41.98314 24.02533 40989 ft 507 kts 140°
2026-04-20 10:13 41.93083 24.08909 40986 ft 507 kts 140°
2026-04-20 10:13 41.87851 24.15271 40979 ft 507 kts 140°
2026-04-20 10:14 41.82650 24.21559 40984 ft 506 kts 140°
2026-04-20 10:14 41.77410 24.27860 40976 ft 506 kts 140°
2026-04-20 10:15 41.72183 24.34157 40989 ft 506 kts 140°
2026-04-20 10:15 41.66955 24.40455 40990 ft 505 kts 140°
2026-04-20 10:16 41.61730 24.46739 40988 ft 505 kts 140°
2026-04-20 10:16 41.56503 24.53008 40991 ft 504 kts 140°
2026-04-20 10:17 41.51281 24.59257 40989 ft 503 kts 140°
2026-04-20 10:17 41.46086 24.65460 40993 ft 503 kts 140°
2026-04-20 10:18 41.40855 24.71678 40993 ft 503 kts 140°
2026-04-20 10:18 41.35617 24.77865 41005 ft 503 kts 140°
2026-04-20 10:19 41.31265 24.83006 41003 ft 502 kts 140°
2026-04-20 10:19 41.25182 24.90190 41011 ft 502 kts 140°
2026-04-20 10:20 41.20805 24.95349 41009 ft 502 kts 140°
2026-04-20 10:20 41.15608 25.01464 41020 ft 501 kts 140°
2026-04-20 10:21 41.10385 25.07595 41018 ft 500 kts 140°
2026-04-20 10:21 41.05169 25.13702 41026 ft 500 kts 140°
2026-04-20 10:22 40.99993 25.19750 41030 ft 499 kts 140°
2026-04-20 10:22 40.94782 25.25825 41033 ft 499 kts 141°
2026-04-20 10:23 40.89569 25.31884 41034 ft 499 kts 141°
2026-04-20 10:23 40.84343 25.37938 41038 ft 499 kts 141°
2026-04-20 10:24 40.79144 25.44023 41039 ft 499 kts 138°
2026-04-20 10:24 40.74427 25.50700 41043 ft 501 kts 132°
2026-04-20 10:25 40.69942 25.57758 41046 ft 501 kts 131°
2026-04-20 10:25 40.65456 25.64790 41041 ft 501 kts 132°
2026-04-20 10:26 40.60928 25.71771 41044 ft 501 kts 132°
2026-04-20 10:26 40.56388 25.78716 41044 ft 501 kts 132°
2026-04-20 10:27 40.51836 25.85663 41045 ft 501 kts 132°
2026-04-20 10:27 40.47297 25.92521 41049 ft 500 kts 133°
2026-04-20 10:28 40.42699 25.99407 41048 ft 500 kts 133°
2026-04-20 10:28 40.38109 26.06280 41051 ft 500 kts 133°
2026-04-20 10:29 40.33516 26.13152 41043 ft 501 kts 133°
2026-04-20 10:29 40.28920 26.20016 41044 ft 501 kts 133°
2026-04-20 10:30 40.24352 26.26822 41053 ft 501 kts 133°
2026-04-20 10:30 40.19747 26.33667 41039 ft 501 kts 133°
2026-04-20 10:31 40.15091 26.40453 41056 ft 500 kts 136°
2026-04-20 10:31 40.10192 26.46895 41047 ft 499 kts 137°
2026-04-20 10:32 40.05216 26.53238 41045 ft 500 kts 137°
2026-04-20 10:32 40.00251 26.59594 41041 ft 500 kts 137°
2026-04-20 10:33 39.95331 26.65917 41043 ft 499 kts 137°
2026-04-20 10:33 39.90379 26.72277 41044 ft 500 kts 137°
2026-04-20 10:34 39.85424 26.78626 41045 ft 499 kts 137°
2026-04-20 10:35 39.77980 26.88134 41049 ft 499 kts 138°
2026-04-20 10:35 39.72960 26.94381 41045 ft 499 kts 139°
2026-04-20 10:36 39.67939 27.00544 41045 ft 499 kts 139°
2026-04-20 10:36 39.62895 27.06735 41048 ft 499 kts 139°
2026-04-20 10:37 39.57850 27.12929 41047 ft 499 kts 139°
2026-04-20 10:37 39.52802 27.19118 41049 ft 499 kts 139°
2026-04-20 10:38 39.47892 27.25494 41049 ft 501 kts 134°
2026-04-20 10:38 39.43414 27.32428 41051 ft 502 kts 131°
2026-04-20 10:39 39.39058 27.39432 41048 ft 502 kts 131°
2026-04-20 10:39 39.34637 27.46418 41052 ft 501 kts 131°
2026-04-20 10:40 39.30190 27.53351 41050 ft 501 kts 131°
2026-04-20 10:40 39.25731 27.60277 41047 ft 501 kts 131°
2026-04-20 10:41 39.21269 27.67198 41047 ft 501 kts 131°
2026-04-20 10:41 39.16805 27.74111 41046 ft 501 kts 132°
2026-04-20 10:42 39.12339 27.81014 41040 ft 501 kts 132°
2026-04-20 10:42 39.07865 27.87910 41044 ft 502 kts 132°
2026-04-20 10:43 39.03388 27.94797 41048 ft 502 kts 132°
2026-04-20 10:43 38.98939 28.01646 41039 ft 502 kts 132°
2026-04-20 10:44 38.94457 28.08543 41032 ft 502 kts 132°
2026-04-20 10:44 38.89964 28.15441 41034 ft 503 kts 132°
2026-04-20 10:45 38.85464 28.22337 41036 ft 503 kts 132°
2026-04-20 10:45 38.80987 28.29182 41040 ft 503 kts 132°
2026-04-20 10:46 38.76476 28.36062 41035 ft 504 kts 132°
2026-04-20 10:46 38.71957 28.42940 41037 ft 504 kts 132°
2026-04-20 10:47 38.67435 28.49808 41037 ft 504 kts 132°
2026-04-20 10:47 38.62912 28.56663 41037 ft 504 kts 132°
2026-04-20 10:48 38.58162 28.63234 41034 ft 500 kts 142°
2026-04-20 10:48 38.52634 28.68494 41034 ft 498 kts 149°
2026-04-20 10:49 38.46882 28.73428 41023 ft 498 kts 149°
2026-04-20 10:49 38.41163 28.78434 41031 ft 499 kts 148°
2026-04-20 10:50 38.35479 28.83511 41027 ft 499 kts 148°
2026-04-20 10:50 38.29802 28.88602 41026 ft 499 kts 148°
2026-04-20 10:51 38.24113 28.93689 41022 ft 499 kts 148°
2026-04-20 10:51 38.18462 28.98727 41022 ft 499 kts 148°
2026-04-20 10:52 38.12767 29.03794 41024 ft 499 kts 148°
2026-04-20 10:52 38.07073 29.08849 41023 ft 499 kts 148°
2026-04-20 10:53 38.01382 29.13891 41016 ft 499 kts 148°
2026-04-20 10:53 37.95688 29.18928 41014 ft 499 kts 148°
2026-04-20 10:54 37.89985 29.23958 41009 ft 499 kts 149°
2026-04-20 10:54 37.84260 29.28972 41013 ft 500 kts 149°
2026-04-20 10:55 37.78568 29.33945 41011 ft 500 kts 149°
2026-04-20 10:55 37.72842 29.38947 41009 ft 500 kts 149°
2026-04-20 10:56 37.67124 29.43941 41001 ft 500 kts 149°
2026-04-20 10:56 37.61398 29.48932 41002 ft 500 kts 149°
2026-04-20 10:57 37.55677 29.53909 40991 ft 499 kts 149°
2026-04-20 10:57 37.49981 29.58853 40988 ft 499 kts 149°
2026-04-20 10:58 37.44250 29.63819 40983 ft 500 kts 149°
2026-04-20 10:58 37.38518 29.68777 40967 ft 500 kts 149°
2026-04-20 10:59 37.32778 29.73725 40976 ft 500 kts 149°
2026-04-20 10:59 37.27041 29.78655 40971 ft 500 kts 149°
2026-04-20 11:00 37.21340 29.83558 40970 ft 500 kts 149°
2026-04-20 11:00 37.15591 29.88500 40966 ft 500 kts 149°
2026-04-20 11:01 37.09837 29.93435 40959 ft 500 kts 149°
2026-04-20 11:01 37.04092 29.98354 40961 ft 500 kts 149°
2026-04-20 11:02 36.98376 30.03244 40949 ft 500 kts 149°
2026-04-20 11:02 36.92626 30.08158 40936 ft 500 kts 149°
2026-04-20 11:03 36.86880 30.13060 40895 ft 498 kts 150°
2026-04-20 11:03 36.81134 30.17939 40938 ft 500 kts 150°
2026-04-20 11:04 36.75362 30.22826 40943 ft 500 kts 150°
2026-04-20 11:04 36.69601 30.27701 40936 ft 500 kts 150°
2026-04-20 11:05 36.63834 30.32574 40947 ft 500 kts 150°
2026-04-20 11:05 36.58099 30.37413 40944 ft 500 kts 150°
2026-04-20 11:06 36.52334 30.42265 40946 ft 501 kts 150°
2026-04-20 11:06 36.46563 30.47114 40940 ft 500 kts 150°
2026-04-20 11:07 36.40783 30.51965 40947 ft 500 kts 150°
2026-04-20 11:07 36.35016 30.56794 40948 ft 500 kts 150°
2026-04-20 11:08 36.29275 30.61592 40941 ft 500 kts 150°
2026-04-20 11:08 36.23492 30.66418 40948 ft 501 kts 150°
2026-04-20 11:09 36.17699 30.71243 40953 ft 501 kts 150°
2026-04-20 11:09 36.12879 30.75235 40953 ft 501 kts 150°
2026-04-20 11:10 36.06137 30.80807 40952 ft 501 kts 150°
2026-04-20 11:10 36.01244 30.84747 40936 ft 500 kts 152°
2026-04-20 11:11 35.95350 30.89331 40958 ft 500 kts 153°
2026-04-20 11:11 35.89484 30.93863 40959 ft 500 kts 152°
2026-04-20 11:12 35.83582 30.98428 40954 ft 500 kts 153°
2026-04-20 11:12 35.77685 31.02992 40955 ft 500 kts 153°
2026-04-20 11:13 35.71819 31.07529 40945 ft 500 kts 153°
2026-04-20 11:13 35.65922 31.12081 40953 ft 500 kts 153°
2026-04-20 11:14 35.60025 31.16622 40960 ft 500 kts 153°
2026-04-20 11:14 35.54121 31.21161 40954 ft 500 kts 153°
2026-04-20 11:15 35.48225 31.25685 40953 ft 500 kts 153°
2026-04-20 11:15 35.42317 31.30210 40954 ft 501 kts 153°
2026-04-20 11:16 35.36396 31.34738 40957 ft 501 kts 153°
2026-04-20 11:16 35.30471 31.39246 40956 ft 500 kts 153°
2026-04-20 11:17 35.24586 31.43711 40957 ft 500 kts 153°
2026-04-20 11:17 35.18692 31.48191 40299 ft 497 kts 153°
2026-04-20 11:17 35.15747 31.50427 39227 ft 499 kts 154°
2026-04-20 11:18 35.12801 31.52663 38077 ft 499 kts 154°
2026-04-20 11:18 35.09833 31.54913 36749 ft 501 kts 154°
2026-04-20 11:18 35.06865 31.57160 35442 ft 502 kts 153°
2026-04-20 11:18 35.03891 31.59410 34153 ft 504 kts 153°
2026-04-20 11:19 35.00897 31.61675 32751 ft 504 kts 153°
2026-04-20 11:19 34.97953 31.63900 31154 ft 506 kts 152°
2026-04-20 11:19 34.94946 31.66170 29589 ft 507 kts 152°
2026-04-20 11:19 34.91966 31.68421 28329 ft 499 kts 151°
2026-04-20 11:20 34.89035 31.70635 27183 ft 490 kts 151°
2026-04-20 11:20 34.86162 31.72801 26048 ft 480 kts 150°
2026-04-20 11:20 34.83344 31.74924 24664 ft 472 kts 150°
2026-04-20 11:20 34.80604 31.76984 23391 ft 464 kts 150°
2026-04-20 11:21 34.77884 31.79026 21977 ft 455 kts 149°
2026-04-20 11:21 34.75222 31.81022 20605 ft 443 kts 149°
2026-04-20 11:21 34.72610 31.82980 19034 ft 435 kts 149°
2026-04-20 11:21 34.70070 31.84882 17260 ft 423 kts 148°
2026-04-20 11:22 34.67601 31.86730 15952 ft 404 kts 148°
2026-04-20 11:22 34.65315 31.88440 15168 ft 374 kts 148°
2026-04-20 11:22 34.63157 31.90053 13976 ft 365 kts 148°
2026-04-20 11:22 34.60991 31.91661 13127 ft 362 kts 148°
2026-04-20 11:23 34.58862 31.93242 12533 ft 355 kts 148°
2026-04-20 11:23 34.56807 31.94769 12393 ft 336 kts 148°
2026-04-20 11:23 34.54864 31.96215 12259 ft 319 kts 148°
2026-04-20 11:23 34.53012 31.97593 12046 ft 307 kts 149°
2026-04-20 11:24 34.51201 31.98941 11629 ft 304 kts 149°
2026-04-20 11:24 34.49413 32.00271 11370 ft 303 kts 149°
2026-04-20 11:24 34.47616 32.01608 11129 ft 302 kts 149°
2026-04-20 11:24 34.45854 32.02919 10896 ft 301 kts 149°
2026-04-20 11:25 34.44070 32.04242 10644 ft 300 kts 149°
2026-04-20 11:25 34.42296 32.05560 10398 ft 299 kts 149°
2026-04-20 11:25 34.40533 32.06886 10161 ft 297 kts 148°
2026-04-20 11:25 34.39025 32.08572 9907 ft 297 kts 121°
2026-04-20 11:26 34.38407 32.10874 9638 ft 291 kts 90°
2026-04-20 11:26 34.38586 32.13302 9379 ft 289 kts 76°
2026-04-20 11:26 34.39075 32.15657 9103 ft 287 kts 70°
2026-04-20 11:26 34.39754 32.17915 8828 ft 284 kts 63°
2026-04-20 11:27 34.40617 32.20061 8557 ft 280 kts 57°
2026-04-20 11:27 34.41753 32.21957 8294 ft 277 kts 46°
2026-04-20 11:27 34.43004 32.23678 8032 ft 275 kts 45°
2026-04-20 11:27 34.44282 32.25401 7763 ft 274 kts 44°
2026-04-20 11:28 34.45558 32.27120 7499 ft 274 kts 44°
2026-04-20 11:28 34.46826 32.28828 7252 ft 272 kts 45°
2026-04-20 11:28 34.48083 32.30538 6991 ft 271 kts 45°
2026-04-20 11:28 34.49289 32.32300 6727 ft 271 kts 51°
2026-04-20 11:29 34.50059 32.34390 6480 ft 276 kts 77°
2026-04-20 11:29 34.49997 32.36713 6229 ft 280 kts 105°
2026-04-20 11:29 34.49105 32.38800 5964 ft 279 kts 129°
2026-04-20 11:29 34.47821 32.40566 5697 ft 279 kts 135°
2026-04-20 11:30 34.46573 32.42348 5423 ft 278 kts 122°
2026-04-20 11:30 34.45973 32.44544 5169 ft 276 kts 94°
2026-04-20 11:30 34.46242 32.46780 4898 ft 271 kts 64°
2026-04-20 11:30 34.47237 32.48675 4644 ft 266 kts 47°
2026-04-20 11:31 34.48442 32.50380 4368 ft 265 kts 45°
2026-04-20 11:31 34.49653 32.52053 4128 ft 263 kts 45°
2026-04-20 11:31 34.50824 32.53757 3845 ft 263 kts 50°
2026-04-20 11:31 34.51816 32.55609 3699 ft 262 kts 54°
2026-04-20 11:32 34.52691 32.57556 3562 ft 264 kts 63°
2026-04-20 11:32 34.53162 32.59720 3447 ft 268 kts 78°
2026-04-20 11:32 34.53391 32.61966 3325 ft 268 kts 81°
2026-04-20 11:32 34.53600 32.64219 3198 ft 270 kts 81°
2026-04-20 11:33 34.53817 32.66477 3083 ft 269 kts 81°
2026-04-20 11:33 34.54003 32.68700 2965 ft 265 kts 82°
2026-04-20 11:33 34.54178 32.70946 2837 ft 267 kts 82°
2026-04-20 11:33 34.54322 32.73186 2717 ft 267 kts 89°
2026-04-20 11:34 34.53888 32.75370 2575 ft 269 kts 117°
2026-04-20 11:34 34.52690 32.77077 2464 ft 263 kts 145°
2026-04-20 11:34 34.51167 32.77959 2323 ft 225 kts 164°
2026-04-20 11:34 34.49768 32.78520 2180 ft 206 kts 165°
2026-04-20 11:35 34.48424 32.79076 2053 ft 202 kts 165°
2026-04-20 11:35 34.47092 32.79625 2025 ft 202 kts 165°
2026-04-20 11:35 34.45758 32.80173 2016 ft 202 kts 165°
2026-04-20 11:35 34.44431 32.80717 2023 ft 201 kts 165°
2026-04-20 11:36 34.43107 32.81246 2023 ft 200 kts 165°
2026-04-20 11:36 34.41788 32.81789 2021 ft 201 kts 160°
2026-04-20 11:36 34.40550 32.82579 2025 ft 202 kts 148°
2026-04-20 11:36 34.39481 32.83685 2019 ft 203 kts 130°
2026-04-20 11:37 34.38746 32.85138 2033 ft 203 kts 115°
2026-04-20 11:37 34.37796 32.88375 2022 ft 205 kts 105°
2026-04-20 11:37 34.37392 32.90040 2025 ft 208 kts 105°
2026-04-20 11:38 34.36991 32.91728 2021 ft 208 kts 105°
2026-04-20 11:38 34.36609 32.93421 2022 ft 208 kts 104°
2026-04-20 11:38 34.36241 32.95076 2018 ft 205 kts 105°
2026-04-20 11:38 34.35860 32.96743 2027 ft 206 kts 104°
2026-04-20 11:39 34.35578 32.98442 2015 ft 207 kts 95°
2026-04-20 11:39 34.35404 33.00179 2025 ft 208 kts 94°
2026-04-20 11:39 34.35382 33.01925 2017 ft 208 kts 85°
2026-04-20 11:39 34.35448 33.03667 2028 ft 206 kts 81°
2026-04-20 11:40 34.35678 33.05359 2037 ft 203 kts 75°
2026-04-20 11:40 34.35958 33.07037 2021 ft 203 kts 75°
2026-04-20 11:40 34.36242 33.08713 2020 ft 204 kts 75°
2026-04-20 11:40 34.36624 33.10359 2022 ft 202 kts 64°
2026-04-20 11:41 34.37253 33.11864 2024 ft 200 kts 54°
2026-04-20 11:41 34.37946 33.13324 2015 ft 201 kts 55°
2026-04-20 11:41 34.38636 33.14790 1998 ft 200 kts 54°
2026-04-20 11:41 34.39329 33.16256 2026 ft 201 kts 56°
2026-04-20 11:42 34.40109 33.17680 2020 ft 204 kts 51°
2026-04-20 11:42 34.40895 33.19121 2030 ft 204 kts 51°
2026-04-20 11:42 34.41676 33.20517 2013 ft 201 kts 47°
2026-04-20 11:42 34.42554 33.21820 2013 ft 199 kts 44°
2026-04-20 11:43 34.43538 33.22977 2015 ft 196 kts 34°
2026-04-20 11:43 34.44603 33.23995 2026 ft 194 kts 29°
2026-04-20 11:43 34.45768 33.24830 1994 ft 192 kts 19°
2026-04-20 11:43 34.46980 33.25486 2013 ft 190 kts 17°
2026-04-20 11:44 34.48213 33.26078 1988 ft 190 kts 14°
2026-04-20 11:44 34.49484 33.26462 1985 ft 186 kts 356°
2026-04-20 11:44 34.50729 33.26259 2014 ft 177 kts 334°
2026-04-20 11:44 34.51705 33.25451 1967 ft 167 kts 300°
2026-04-20 11:45 34.52154 33.24161 2015 ft 167 kts 288°
2026-04-20 11:45 34.52576 33.22845 1999 ft 167 kts 289°
2026-04-20 11:45 34.52991 33.21532 1986 ft 166 kts 289°
2026-04-20 11:45 34.53380 33.20229 1996 ft 167 kts 287°
2026-04-20 11:46 34.53734 33.18887 1982 ft 166 kts 287°
2026-04-20 11:46 34.54083 33.17546 1984 ft 167 kts 286°
2026-04-20 11:46 34.54434 33.16208 1989 ft 162 kts 285°
2026-04-20 11:46 34.54760 33.14971 1965 ft 145 kts 286°
2026-04-20 11:47 34.55061 33.13822 1976 ft 143 kts 286°
2026-04-20 11:47 34.55363 33.12673 1997 ft 143 kts 286°
2026-04-20 11:47 34.55667 33.11522 1968 ft 145 kts 286°
2026-04-20 11:47 34.55972 33.10362 1789 ft 141 kts 286°
2026-04-20 11:48 34.56252 33.09308 1572 ft 127 kts 286°
2026-04-20 11:48 34.56516 33.08304 1414 ft 124 kts 285°
2026-04-20 11:48 34.56778 33.07316 1267 ft 121 kts 285°
2026-04-20 11:48 34.57031 33.06355 1107 ft 119 kts 284°
2026-04-20 11:49 34.57279 33.05415 962 ft 118 kts 284°
2026-04-20 11:49 34.57528 33.04472 799 ft 118 kts 284°
2026-04-20 11:49 34.57789 33.03476 635 ft 128 kts 287°
2026-04-20 11:49 34.58066 33.02436 510 ft 129 kts 288°
2026-04-20 11:50 34.58349 33.01408 371 ft 126 kts 286°
2026-04-20 11:50 34.58616 33.00398 154 ft 127 kts 283°
2026-04-20 11:50 34.58856 32.99434 92 ft 103 kts 288°
2026-04-20 11:50 34.59037 32.98758 100 ft 68 kts 288°
2026-04-20 11:51 34.59146 32.98351 97 ft 38 kts 288°
2026-04-20 11:51 34.59217 32.98078 96 ft 30 kts 287°
2026-04-20 11:51 34.59288 32.97799 96 ft 44 kts 289°
2026-04-20 11:51 34.59354 32.97556 95 ft 26 kts 287°
2026-04-20 11:52 34.59387 32.97415 97 ft 10 kts 284°
2026-04-20 11:52 34.59373 32.97365 97 ft 5 kts 218°
2026-04-20 11:52 34.59345 32.97351 96 ft 6 kts 199°
2026-04-20 11:52 34.59300 32.97345 97 ft 6 kts 179°
2026-04-20 11:53 34.59264 32.97327 98 ft 5 kts 220°
2026-04-20 11:53 34.59245 32.97295 97 ft 4 kts 238°
2026-04-20 11:53 34.59229 32.97263 97 ft 4 kts 238°
2026-04-20 11:53 34.59213 32.97234 97 ft 4 kts 233°
2026-04-20 11:54 34.59194 32.97213 97 ft 4 kts 217°
2026-04-20 11:54 34.59154 32.97198 97 ft 7 kts 185°
2026-04-20 11:54 34.59112 32.97209 96 ft 6 kts 154°
2026-04-20 11:54 34.59087 32.97238 94 ft 4 kts 128°
2026-04-20 11:55 34.59076 32.97271 95 ft 5 kts 103°
2026-04-20 11:55 34.59070 32.97316 94 ft 6 kts 99°
2026-04-20 11:55 34.59064 32.97364 96 ft 6 kts 97°
2026-04-20 11:55 34.59062 32.97386 97 ft 0 kts 97°